Date String (YYYY-MM-DD hh:mm:ss) UTC,Instrument flags,absolute air pressure of the measurement (hPa),sample flow rate (lpm),inlet stack bypass flow (lpm),air temperature of the measurement (°C),ambient temperature measured by the external sensor (°C),aerosol sample conditioner tube jacket temperature (°C),OPC LED temperature (°C),internal box temperature (°C),relative humidity of the measurement (%),span deviation,mass concentration of particles derived from Lorenz-Mie calculation of OPC scattering (μg/m³),mass concentration of particles derived from Lorenz-Mie calculation of OPC scattering (μg/m³),mass concentration of particles derived from Lorenz-Mie calculation of OPC scattering (μg/m³)
DateTimeUTC,F1_M11,P_M11,Q1_M11,Q2_M11,T1_M11,T2_M11,T3_M11,T4_M11,T5_M11,U1_M11,ZSPAN_M11,X0_M11,X2_M11,X1_M11
2023-10-06 01:00:00,SystemResetWarning,0835.9,5.00,000.00,028.4,026.1,000.0,036.9,030.1,18.2,0000.0,0015.29,0003.59,0002.46
2023-10-06 01:01:00,SystemResetWarning,0835.9,5.00,000.00,028.4,026.4,000.0,036.9,030.1,18.1,0000.0,0015.24,0003.60,0002.47
2023-10-06 01:02:00,SystemResetWarning,0835.9,5.00,000.00,028.4,026.7,000.0,036.9,030.2,18.0,0000.0,0014.58,0003.68,0002.47
2023-10-06 01:03:00,SystemResetWarning,0835.9,5.00,000.00,028.5,026.9,000.0,036.9,030.2,17.9,0000.0,0014.17,0003.69,0002.49
2023-10-06 01:04:00,SystemResetWarning,0835.9,4.99,000.00,028.5,027.1,000.0,036.9,030.3,17.9,0000.0,0014.37,0003.72,0002.50
2023-10-06 01:05:00,SystemResetWarning,0835.9,5.00,000.00,028.5,027.2,000.0,036.9,030.3,17.8,0000.0,0015.28,0003.72,0002.52
2023-10-06 01:06:00,SystemResetWarning,0835.9,5.00,000.00,028.6,027.4,000.0,036.9,030.3,17.7,0000.0,0015.03,0003.73,0002.55
2023-10-06 01:07:00,SystemResetWarning,0836.0,5.00,000.00,028.6,027.5,000.0,037.0,030.4,17.7,0000.0,0014.45,0003.75,0002.56
2023-10-06 01:08:00,SystemResetWarning,0835.9,4.99,000.00,028.7,027.6,000.0,037.0,030.5,17.6,0000.0,0013.75,0003.77,0002.55
2023-10-06 01:09:00,SystemResetWarning,0836.0,5.00,000.00,028.7,027.5,000.0,037.0,030.5,17.4,0000.0,0012.91,0003.72,0002.54
2023-10-06 01:10:00,SystemResetWarning,0835.9,5.00,000.00,028.7,026.0,000.0,037.0,030.4,17.3,0000.0,0012.06,0003.69,0002.52
2023-10-06 01:11:00,SystemResetWarning,0836.0,5.01,000.00,028.6,024.7,000.0,036.9,030.2,17.3,0000.0,0011.58,0003.68,0002.51
2023-10-06 01:12:00,SystemResetWarning,0836.0,5.01,000.00,028.5,024.7,000.0,036.9,030.0,17.3,0000.0,0011.55,0003.69,0002.51
2023-10-06 01:13:00,SystemResetWarning,0836.0,5.00,000.00,028.4,024.9,000.0,036.9,029.9,17.4,0000.0,0011.07,0003.62,0002.52
2023-10-06 01:14:00,SystemResetWarning,0836.0,5.00,000.00,028.4,025.3,000.0,036.9,029.9,17.4,0000.0,0010.47,0003.59,0002.51
2023-10-06 01:15:00,SystemResetWarning,0836.1,5.01,000.00,028.4,025.7,000.0,036.9,030.0,17.4,0000.0,0009.96,0003.58,0002.51
2023-10-06 01:16:00,SystemResetWarning,0836.1,5.00,000.00,028.4,026.0,000.0,036.9,030.0,17.4,0000.0,0009.80,0003.56,0002.48
2023-10-06 01:17:00,SystemResetWarning,0836.1,5.00,000.00,028.4,026.3,000.0,036.9,030.1,17.4,0000.0,0009.80,0003.51,0002.46
2023-10-06 01:18:00,SystemResetWarning,0836.2,5.00,000.00,028.4,026.6,000.0,036.9,030.1,17.3,0000.0,0011.36,0003.49,0002.46
2023-10-06 01:19:00,SystemResetWarning,0836.2,5.00,000.00,028.4,026.8,000.0,036.9,030.2,17.3,0000.0,0011.97,0003.48,0002.49
2023-10-06 01:20:00,SystemResetWarning,0836.2,5.00,000.00,028.5,027.0,000.0,036.9,030.2,17.2,0000.0,0012.10,0003.51,0002.51
2023-10-06 01:21:00,SystemResetWarning,0836.2,5.00,000.00,028.5,027.1,000.0,036.9,030.3,17.2,0000.0,0012.34,0003.50,0002.52
2023-10-06 01:22:00,SystemResetWarning,0836.2,5.00,000.00,028.5,027.3,000.0,036.9,030.3,17.1,0000.0,0013.43,0003.48,0002.53
2023-10-06 01:23:00,SystemResetWarning,0836.2,5.00,000.00,028.6,027.4,000.0,036.9,030.3,17.1,0000.0,0013.06,0003.47,0002.53
2023-10-06 01:24:00,SystemResetWarning,0836.2,5.00,000.00,028.6,027.5,000.0,037.0,030.4,17.0,0000.0,0013.97,0003.52,0002.55
2023-10-06 01:25:00,SystemResetWarning,0836.3,5.00,000.00,028.6,027.5,000.0,037.0,030.4,17.0,0000.0,0014.84,0003.58,0002.55
2023-10-06 01:26:00,SystemResetWarning,0836.3,5.00,000.00,028.7,027.5,000.0,037.0,030.4,17.0,0000.0,0016.27,0003.52,0002.52
2023-10-06 01:27:00,SystemResetWarning,0836.3,5.00,000.00,028.7,026.0,000.0,037.0,030.3,17.0,0000.0,0016.09,0003.51,0002.53
2023-10-06 01:28:00,SystemResetWarning,0836.3,5.00,000.00,028.6,024.6,000.0,036.9,030.2,17.0,0000.0,0015.92,0003.52,0002.53
2023-10-06 01:29:00,SystemResetWarning,0836.3,5.01,000.00,028.5,024.5,000.0,036.9,030.0,17.1,0000.0,0015.72,0003.52,0002.52
2023-10-06 01:30:00,SystemResetWarning,0836.3,5.01,000.00,028.4,024.8,000.0,036.9,029.8,17.2,0000.0,0014.95,0003.53,0002.52
2023-10-06 01:31:00,SystemResetWarning,0836.3,5.00,000.00,028.3,025.1,000.0,036.9,029.9,17.2,0000.0,0015.31,0003.55,0002.52
2023-10-06 01:32:00,SystemResetWarning,0836.3,5.00,000.00,028.3,025.5,000.0,036.9,029.9,17.2,0000.0,0015.69,0003.57,0002.53
2023-10-06 01:33:00,SystemResetWarning,0836.4,4.99,000.00,028.3,025.9,000.0,036.9,030.0,17.2,0000.0,0014.93,0003.60,0002.54
2023-10-06 01:34:00,SystemResetWarning,0836.4,4.99,000.00,028.3,026.2,000.0,036.9,030.0,17.2,0000.0,0014.79,0003.60,0002.55
2023-10-06 01:35:00,SystemResetWarning,0836.3,5.01,000.00,028.3,026.4,000.0,036.8,030.1,17.3,0000.0,0014.18,0003.53,0002.54
2023-10-06 01:36:00,SystemResetWarning,0836.4,5.01,000.00,028.4,026.6,000.0,036.9,030.1,17.2,0000.0,0013.41,0003.49,0002.54
2023-10-06 01:37:00,SystemResetWarning,0836.4,5.01,000.00,028.4,026.8,000.0,036.9,030.1,17.2,0000.0,0011.98,0003.52,0002.57
2023-10-06 01:38:00,SystemResetWarning,0836.4,5.00,000.00,028.4,027.0,000.0,036.9,030.2,17.2,0000.0,0012.03,0003.54,0002.58
2023-10-06 01:39:00,SystemResetWarning,0836.4,4.99,000.00,028.4,027.1,000.0,036.9,030.2,17.1,0000.0,0012.80,0003.62,0002.59
2023-10-06 01:40:00,SystemResetWarning,0836.4,4.99,000.00,028.5,027.2,000.0,036.9,030.2,17.1,0000.0,0013.13,0003.62,0002.60
2023-10-06 01:41:00,SystemResetWarning,0836.4,5.00,000.00,028.5,027.3,000.0,036.9,030.3,17.0,0000.0,0014.50,0003.63,0002.61
2023-10-06 01:42:00,SystemResetWarning,0836.4,5.00,000.00,028.5,027.4,000.0,036.9,030.3,17.0,0000.0,0015.48,0003.61,0002.62
2023-10-06 01:43:00,SystemResetWarning,0836.5,5.00,000.00,028.6,027.4,000.0,037.0,030.4,17.0,0000.0,0015.09,0003.63,0002.62
2023-10-06 01:44:00,SystemResetWarning,0836.5,5.00,000.00,028.6,027.5,000.0,037.0,030.4,16.9,0000.0,0015.56,0003.64,0002.62
2023-10-06 01:45:00,SystemResetWarning,0836.6,5.00,000.00,028.6,027.6,000.0,037.0,030.4,16.9,0000.0,0016.00,0003.63,0002.62
2023-10-06 01:46:00,SystemResetWarning,0836.7,5.01,000.00,028.7,027.6,000.0,037.0,030.4,16.9,0000.0,0015.63,0003.64,0002.62
2023-10-06 01:47:00,SystemResetWarning,0836.6,5.00,000.00,028.7,027.4,000.0,037.0,030.5,16.8,0000.0,0016.80,0003.63,0002.61
2023-10-06 01:48:00,SystemResetWarning,0836.6,4.98,000.00,028.7,025.6,000.0,037.0,030.3,16.8,0000.0,0018.08,0003.66,0002.60
2023-10-06 01:49:00,SystemResetWarning,0836.6,5.00,000.00,028.6,024.5,000.0,036.9,030.2,16.9,0000.0,0017.95,0003.69,0002.60
2023-10-06 01:50:00,SystemResetWarning,0836.6,5.01,000.00,028.5,024.4,000.0,036.9,029.9,17.0,0000.0,0016.80,0003.65,0002.60
2023-10-06 01:51:00,SystemResetWarning,0836.6,5.00,000.00,028.4,024.7,000.0,036.9,029.8,17.1,0000.0,0015.67,0003.69,0002.61
2023-10-06 01:52:00,SystemResetWarning,0836.6,5.00,000.00,028.3,025.1,000.0,036.9,029.8,17.2,0000.0,0014.25,0003.72,0002.62
2023-10-06 01:53:00,SystemResetWarning,0836.6,5.01,000.00,028.3,025.5,000.0,036.9,029.9,17.2,0000.0,0012.94,0003.74,0002.62
2023-10-06 01:54:00,SystemResetWarning,0836.6,4.99,000.00,028.3,025.9,000.0,036.9,029.9,17.2,0000.0,0013.19,0003.79,0002.61
2023-10-06 01:55:00,SystemResetWarning,0836.7,5.01,000.00,028.3,026.2,000.0,036.9,030.0,17.2,0000.0,0013.32,0003.81,0002.61
2023-10-06 01:56:00,SystemResetWarning,0836.7,5.01,000.00,028.3,026.4,000.0,036.9,030.0,17.1,0000.0,0012.80,0003.82,0002.61
2023-10-06 01:57:00,SystemResetWarning,0836.7,5.00,000.00,028.3,026.6,000.0,036.9,030.1,17.1,0000.0,0013.01,0003.87,0002.63
2023-10-06 01:58:00,SystemResetWarning,0836.8,5.01,000.00,028.4,026.8,000.0,036.9,030.1,17.1,0000.0,0013.32,0003.99,0002.66
2023-10-06 01:59:00,SystemResetWarning,0836.8,5.00,000.00,028.4,026.9,000.0,036.9,030.2,17.1,0000.0,0012.13,0004.07,0002.66
